Wind_Speed
19 21 21 22 21 21 21 21 21 21 20 19 19 19 19 18 16 15 15 16 16 18 20 20 21 22 23 25 25 27 28 30 30 28 27 24 23 21 21 20 20 20 21
21 21 21 22 21 21 22 22 22 21 21 20 19 19 19 18 17 16 15 16 16 17 18 20 21 22 23 25 27 28 29 31 33 32 31 29 27 25 23 22 22 21 22
22 22 22 22 21 21 22 22 22 21 20 20 19 19 20 20 19 18 17 17 17 17 18 18 20 21 21 23 26 29 30 32 34 34 33 32 31 29 28 26 25 23 23
21 22 23 22 19 18 19 19 20 19 19 19 20 19 20 20 20 21 21 20 19 19 20 20 20 20 20 21 23 26 29 32 35 36 37 35 34 33 31 30 28 26 25
22 23 24 21 17 16 17 18 19 19 19 20 20 20 20 20 21 22 23 23 23 22 22 22 22 21 20 20 20 22 27 30 34 37 37 37 37 36 34 33 31 29 28
22 23 22 19 16 16 18 19 20 20 20 20 20 20 20 20 21 22 23 24 24 24 24 24 23 23 21 20 20 21 23 27 31 35 37 36 36 36 36 35 34 31 31
18 19 19 17 17 18 18 20 21 22 22 22 21 20 21 21 21 21 22 23 24 24 24 24 24 24 23 22 21 21 22 23 26 29 33 34 35 35 35 35 34 33 33
16 17 17 18 18 19 20 21 22 22 22 23 22 21 21 21 21 22 22 22 23 24 24 24 24 25 24 24 23 22 22 21 22 23 26 29 31 32 33 33 32 32 32
16 17 17 18 19 19 20 21 21 21 21 22 21 20 19 19 19 20 20 21 23 24 24 24 25 26 26 25 24 24 23 23 23 22 22 24 26 28 30 31 32 32 32
15 16 16 17 18 18 19 20 20 20 20 19 19 19 18 18 19 20 20 21 22 22 23 24 25 26 26 26 26 25 25 24 23 23 23 24 24 26 27 29 30 31 32
16 16 17 17 18 19 19 20 19 19 18 18 18 18 18 19 21 22 23 23 24 24 24 25 25 26 26 26 26 26 26 25 25 24 24 25 26 27 27 28 29 30 31
17 17 17 18 19 19 19 18 18 17 17 17 18 19 21 22 24 25 26 27 27 28 27 27 27 26 26 26 25 25 26 26 26 26 26 26 26 27 28 29 30 31 32
17 18 18 19 19 19 18 17 16 16 17 18 20 21 23 24 26 28 29 29 30 30 30 29 28 27 26 26 26 26 26 26 27 27 27 27 27 28 28 29 30 30 31
18 18 18 18 17 16 15 15 15 16 17 19 20 21 22 24 25 26 27 28 29 30 30 30 29 28 26 26 26 25 26 26 27 27 27 27 27 27 28 28 28 29 30
16 16 16 15 14 13 13 13 14 15 17 18 18 19 20 21 22 22 22 23 23 24 24 25 25 25 24 24 24 23 23 24 24 25 25 25 26 26 27 27 28 29 30
15 14 13 13 12 12 12 13 13 14 15 15 16 17 17 17 17 15 14 13 12 13 15 18 19 19 20 20 20 20 20 21 22 23 24 25 26 27 28 28 29 30 31
15 15 14 13 13 13 13 13 13 13 13 14 14 14 14 14 13 11 9 5 1 3 7 10 12 13 14 15 16 17 18 19 20 22 23 25 26 27 28 29 30 32 33
16 16 16 16 15 15 15 15 14 14 14 14 14 13 14 13 11 10 9 8 7 7 6 6 8 9 10 11 12 13 15 17 18 20 22 24 26 27 29 31 32 33 34
17 17 18 18 18 18 18 17 17 17 16 16 15 14 14 14 13 11 11 10 9 8 6 5 4 4 5 6 8 10 12 15 17 19 21 24 26 27 29 30 31 32 33
18 18 18 19 19 19 20 20 20 20 19 18 17 15 15 14 13 13 13 12 12 10 8 6 4 2 1 2 5 8 10 13 15 18 20 22 24 26 27 29 30 32 33
18 18 19 19 20 20 21 21 22 22 22 21 20 19 18 17 16 15 15 14 13 13 12 10 8 6 5 5 6 7 9 11 14 16 18 20 21 23 25 27 29 30 32
17 17 17 18 19 20 20 21 22 23 24 24 24 23 22 21 20 19 18 17 16 16 15 14 13 12 11 10 10 10 10 12 14 16 18 19 21 22 24 25 27 28 30
15 16 16 16 17 17 18 19 20 21 22 23 23 23 23 23 22 22 21 20 20 19 18 18 17 16 15 14 14 14 15 16 17 18 19 20 21 22 23 24 24 25 26
14 14 15 15 15 15 16 17 18 18 19 20 21 21 22 22 21 21 21 21 20 20 19 19 18 18 18 18 18 18 19 19 19 20 20 20 20 21 21 21 22 22 22
12 12 13 13 14 15 15 15 16 16 16 17 18 18 19 19 19 19 19 20 20 20 20 20 19 19 19 20 20 21 21 21 21 21 21 21 21 21 20 20 19 19 19
10 11 12 13 14 14 15 15 15 15 15 15 16 16 16 16 17 17 18 18 19 19 20 20 20 20 21 21 22 23 23 24 23 23 22 22 22 21 21 20 20 19 19
Wind_Direction
268 273 277 279 280 283 288 289 287 286 285 282 279 275 272 269 264 260 259 255 251 249 247 246 245 246 246 241 240 235 232 229 229 232 234 234 235 236 237 237 235 236 235
269 273 277 279 282 285 289 291 291 287 284 280 276 273 270 268 265 262 261 257 253 251 249 247 246 247 248 246 242 240 238 231 229 231 233 236 236 237 239 241 240 239 239
271 275 279 280 282 286 290 292 291 288 284 280 277 273 270 268 265 263 262 260 257 254 251 249 249 248 252 251 245 242 242 237 231 230 231 233 236 238 239 242 243 243 242
275 280 284 280 280 286 290 293 292 288 284 283 279 275 272 269 266 263 261 260 259 258 256 253 254 253 254 253 250 246 244 241 237 235 232 232 232 235 238 240 241 244 246
279 283 282 284 288 290 291 293 292 290 286 283 280 277 274 272 269 266 263 261 260 259 259 258 257 256 254 252 250 248 246 244 242 238 236 235 233 234 236 238 240 244 247
282 285 290 294 298 293 293 294 293 291 289 285 282 278 276 274 272 269 265 263 261 260 259 259 259 258 255 252 251 251 251 246 242 240 239 239 236 234 234 237 240 244 245
287 293 299 298 296 295 295 295 293 292 291 288 284 281 279 276 274 271 268 266 264 262 261 260 260 259 258 255 253 253 252 249 246 242 238 237 236 236 236 237 240 243 244
295 296 298 298 298 298 296 296 295 293 291 288 286 284 282 279 274 271 268 266 264 263 262 261 260 259 257 255 253 252 250 250 249 247 244 240 239 238 239 239 240 241 242
297 297 298 299 299 299 298 299 298 296 294 291 288 285 282 279 275 272 268 266 263 262 261 261 260 259 257 255 253 251 249 250 250 250 251 248 244 241 241 241 241 241 242
300 300 302 303 303 302 301 301 299 297 294 292 289 286 281 277 275 273 270 267 265 263 261 260 258 256 255 255 254 252 251 250 250 248 248 250 249 245 244 243 243 244 245
307 306 307 307 307 306 305 303 300 297 295 292 290 288 284 280 278 276 273 270 268 264 261 259 257 256 255 254 253 253 252 252 251 249 248 247 247 247 246 246 247 248 247
309 308 307 307 308 307 306 303 300 297 295 294 292 291 288 286 282 279 276 272 269 266 262 259 257 255 254 253 252 251 250 250 250 248 248 248 248 248 248 248 250 252 253
311 309 307 307 308 307 306 304 301 299 298 297 296 295 293 290 287 284 280 274 269 265 262 258 255 252 251 250 249 248 247 247 247 247 247 248 249 251 252 253 255 255 256
317 314 312 312 313 313 311 309 307 305 304 302 302 301 299 298 295 290 285 278 272 265 259 255 251 248 248 249 249 248 246 245 244 245 247 248 250 252 254 256 257 258 259
327 324 323 324 325 324 322 318 315 313 311 311 312 313 312 310 307 302 294 285 275 263 252 246 243 243 245 245 245 244 244 241 242 244 247 249 251 253 255 257 258 260 262
347 346 346 348 348 345 339 334 330 326 325 325 327 329 328 326 325 320 312 300 277 254 239 232 231 233 235 237 240 241 240 240 243 246 248 251 254 257 259 261 262 263 264
9 12 13 13 12 8 4 358 353 350 347 345 344 345 345 347 349 352 352 356 12 183 191 200 208 213 221 228 232 236 240 246 250 253 255 257 259 261 263 265 266 266 266
27 29 31 31 30 26 23 19 14 10 7 5 6 6 7 10 16 24 35 52 77 107 134 165 187 199 209 222 232 240 248 254 258 260 261 262 265 266 268 269 269 270 269
37 40 41 40 39 36 32 29 26 22 20 20 21 23 25 27 33 39 46 54 65 83 98 110 143 180 209 229 245 253 258 262 265 268 269 270 271 272 273 274 274 274 274
43 43 43 42 41 39 36 35 33 32 32 33 34 34 36 39 43 47 49 54 61 67 70 70 71 73 353 286 284 281 279 279 279 280 282 282 281 280 280 279 278 278 277
43 44 43 43 43 42 41 41 40 40 41 43 45 47 48 50 52 54 55 57 59 60 59 56 52 44 25 0 339 323 312 306 302 300 297 295 292 290 288 286 284 282 280
43 43 43 43 45 45 45 46 46 47 48 49 51 53 55 56 56 57 58 59 59 57 55 53 50 46 38 28 15 2 347 334 325 318 313 308 304 301 298 295 292 289 285
40 40 40 42 43 45 46 46 47 48 50 52 53 54 55 57 58 58 58 59 58 57 55 54 51 47 40 32 22 11 0 350 340 333 328 322 317 313 309 305 301 297 294
38 37 38 39 40 41 43 45 45 46 48 50 51 51 52 54 55 56 56 56 55 53 50 47 44 39 33 26 19 12 5 359 352 347 343 339 335 330 325 320 315 310 306
36 34 35 37 37 38 39 40 41 41 42 43 45 46 47 48 49 49 50 50 49 47 44 40 36 32 28 24 20 16 13 9 5 2 357 353 351 348 345 341 335 329 323
33 32 32 34 34 34 34 34 35 36 37 39 40 41 42 42 42 42 42 42 41 40 38 36 34 32 28 26 24 22 20 18 14 11 8 4 0 357 355 353 351 348 342
Height
5805 5804 5803 5802 5801 5800 5799 5797 5795 5793 5791 5790 5788 5787 5786 5786 5785 5785 5785 5785 5786 5787 5788 5790 5792 5793 5795 5797 5799 5802 5805 5809 5812 5815 5818 5821 5823 5824 5826 5828 5829 5831 5833
5798 5797 5797 5796 5795 5793 5792 5790 5788 5787 5785 5784 5783 5782 5781 5781 5780 5780 5781 5781 5782 5782 5783 5785 5786 5788 5789 5790 5792 5795 5798 5802 5805 5809 5812 5814 5816 5819 5821 5822 5824 5826 5828
5792 5791 5790 5789 5788 5786 5785 5784 5782 5780 5779 5778 5778 5777 5776 5776 5776 5776 5776 5777 5777 5778 5779 5779 5781 5782 5783 5784 5785 5788 5791 5793 5797 5801 5804 5807 5810 5812 5814 5816 5818 5820 5822
5787 5785 5784 5782 5781 5780 5779 5777 5776 5775 5774 5773 5772 5771 5771 5770 5770 5770 5771 5771 5772 5773 5773 5774 5775 5776 5777 5778 5779 5781 5783 5785 5789 5792 5796 5799 5802 5804 5807 5809 5812 5813 5815
5782 5780 5777 5775 5774 5774 5773 5772 5771 5770 5768 5767 5767 5766 5765 5765 5764 5764 5765 5766 5766 5767 5768 5769 5770 5771 5772 5773 5774 5775 5776 5778 5780 5784 5787 5790 5794 5797 5800 5802 5805 5807 5809
5776 5773 5770 5769 5769 5769 5769 5768 5766 5765 5763 5762 5761 5760 5759 5759 5759 5759 5759 5759 5760 5761 5762 5763 5764 5765 5766 5767 5768 5769 5770 5771 5773 5776 5779 5782 5785 5788 5792 5795 5797 5800 5801
5771 5769 5768 5766 5766 5765 5764 5762 5760 5759 5757 5756 5755 5754 5753 5753 5752 5752 5752 5753 5753 5754 5755 5756 5757 5758 5760 5761 5762 5763 5764 5765 5767 5768 5771 5773 5777 5780 5784 5787 5789 5792 5793
5768 5766 5765 5763 5761 5760 5758 5756 5754 5752 5750 5749 5748 5747 5747 5746 5746 5746 5745 5746 5747 5748 5749 5750 5751 5752 5753 5754 5756 5757 5758 5760 5761 5763 5764 5766 5769 5772 5775 5778 5781 5783 5785
5764 5763 5761 5759 5757 5755 5752 5750 5748 5746 5744 5742 5741 5740 5740 5739 5739 5739 5739 5739 5740 5741 5742 5743 5744 5745 5746 5748 5749 5751 5752 5754 5755 5757 5758 5760 5762 5764 5766 5769 5772 5775 5777
5761 5759 5757 5755 5752 5749 5747 5744 5742 5740 5738 5736 5735 5734 5734 5733 5733 5732 5732 5733 5733 5734 5735 5735 5736 5737 5739 5740 5742 5744 5746 5748 5750 5751 5752 5754 5756 5757 5759 5761 5764 5766 5768
5758 5755 5753 5750 5747 5744 5741 5739 5737 5734 5733 5731 5730 5729 5728 5727 5726 5726 5726 5726 5726 5727 5727 5728 5729 5730 5731 5733 5735 5737 5739 5741 5743 5745 5746 5748 5749 5751 5752 5754 5756 5758 5759
5755 5752 5749 5746 5743 5740 5737 5734 5732 5730 5728 5726 5725 5723 5722 5721 5719 5718 5717 5717 5717 5718 5719 5720 5721 5722 5724 5726 5728 5730 5732 5734 5736 5738 5739 5741 5743 5744 5746 5747 5748 5749 5751
5751 5748 5745 5742 5738 5735 5732 5730 5727 5726 5724 5722 5720 5718 5715 5713 5711 5709 5708 5707 5707 5707 5708 5710 5712 5714 5716 5719 5721 5723 5725 5727 5729 5731 5733 5734 5736 5737 5738 5739 5740 5741 5742
5747 5744 5741 5737 5734 5731 5728 5726 5724 5722 5719 5717 5715 5712 5709 5706 5703 5700 5697 5696 5695 5696 5697 5700 5703 5706 5709 5711 5714 5716 5718 5720 5722 5724 5726 5728 5729 5730 5731 5732 5732 5733 5733
5744 5740 5737 5733 5730 5727 5725 5722 5720 5718 5715 5713 5710 5707 5703 5699 5695 5691 5688 5685 5684 5685 5687 5690 5694 5698 5702 5705 5707 5710 5712 5714 5716 5718 5720 5721 5722 5723 5724 5724 5724 5724 5724
5742 5738 5734 5731 5728 5725 5722 5720 5717 5715 5712 5709 5706 5703 5699 5695 5690 5685 5682 5679 5677 5678 5680 5684 5688 5692 5696 5699 5702 5705 5707 5709 5711 5712 5713 5714 5715 5716 5716 5716 5716 5716 5715
5741 5737 5733 5730 5727 5724 5722 5719 5716 5714 5710 5707 5704 5701 5697 5693 5688 5684 5680 5678 5677 5677 5679 5682 5686 5690 5693 5696 5698 5700 5703 5704 5705 5706 5707 5708 5708 5708 5708 5707 5707 5707 5706
5742 5738 5735 5732 5729 5726 5723 5720 5716 5713 5710 5707 5704 5700 5697 5693 5690 5686 5683 5681 5680 5680 5682 5684 5687 5689 5692 5694 5696 5697 5699 5700 5701 5701 5701 5701 5701 5701 5700 5699 5698 5697 5696
5744 5741 5738 5735 5731 5728 5725 5721 5718 5714 5711 5708 5704 5701 5698 5695 5692 5690 5688 5686 5685 5685 5686 5687 5688 5690 5692 5693 5694 5695 5696 5696 5696 5696 5696 5695 5694 5693 5692 5690 5689 5687 5686
5747 5744 5741 5738 5735 5731 5728 5724 5721 5717 5713 5710 5707 5704 5701 5698 5696 5694 5692 5691 5690 5690 5690 5690 5691 5691 5692 5693 5693 5693 5693 5693 5692 5691 5690 5688 5687 5685 5683 5681 5679 5677 5675
5751 5748 5745 5742 5738 5735 5732 5728 5725 5721 5717 5714 5711 5708 5705 5703 5700 5698 5697 5695 5695 5694 5694 5693 5693 5693 5693 5693 5693 5692 5691 5690 5689 5687 5685 5682 5680 5677 5674 5672 5669 5667 5664
5754 5752 5749 5746 5743 5740 5737 5733 5730 5727 5723 5720 5716 5713 5711 5708 5706 5704 5702 5700 5699 5699 5698 5697 5696 5695 5695 5694 5693 5691 5690 5688 5685 5683 5680 5676 5673 5670 5666 5663 5660 5657 5654
5758 5755 5753 5750 5747 5744 5741 5738 5735 5732 5729 5726 5723 5720 5717 5715 5712 5710 5708 5706 5705 5704 5703 5702 5700 5699 5697 5696 5694 5691 5689 5686 5682 5679 5675 5671 5667 5663 5659 5655 5651 5648 5645
5760 5758 5756 5753 5751 5748 5745 5743 5740 5737 5735 5732 5729 5726 5724 5721 5719 5717 5714 5713 5711 5709 5708 5706 5704 5702 5700 5697 5694 5691 5688 5684 5680 5675 5671 5667 5662 5658 5653 5649 5644 5641 5637
5763 5761 5759 5757 5754 5752 5749 5747 5744 5741 5739 5737 5734 5731 5729 5727 5724 5722 5720 5718 5716 5714 5712 5709 5707 5704 5702 5699 5695 5692 5688 5683 5679 5674 5669 5665 5660 5655 5650 5645 5640 5636 5632
5764 5763 5761 5759 5757 5755 5752 5750 5747 5745 5742 5740 5738 5735 5733 5731 5729 5726 5724 5722 5720 5718 5715 5712 5710 5707 5704 5700 5697 5693 5689 5684 5679 5674 5669 5664 5659 5653 5648 5643 5638 5633 5629